Temp
1 1 1 1 1 1 1 1 1 2 2 2 2 3 3 3 3 3 3 3 3 3 5 7 7 6 5 6 6 6 7 8 7 7 8 9 9 12 12 13 12 11 10 9 9 10 11 16 13 11 12 14 16 15
1 1 1 1 1 1 1 2 2 2 2 2 2 3 3 3 3 3 3 3 2 4 4 5 6 6 7 9 8 7 8 8 7 9 9 10 10 11 12 12 15 13 14 14 13 12 15 15 13 12 13 14 16 14
1 1 1 1 2 2 2 2 2 2 2 3 3 3 3 3 3 3 3 3 2 3 2 4 5 5 6 8 9 7 9 10 9 9 7 9 9 11 10 12 13 15 15 14 14 15 14 12 11 12 14 16 15 16
1 1 1 2 2 2 2 2 2 3 3 3 3 3 3 3 3 3 3 3 3 2 4 5 5 6 7 7 8 9 10 10 10 9 7 7 9 10 11 12 12 15 15 14 15 15 15 16 16 16 16 16 14 14
1 1 2 2 3 3 3 3 3 3 3 3 3 4 4 3 3 3 3 3 3 5 5 7 7 6 7 7 7 8 9 9 8 7 6 7 10 10 11 11 12 14 14 14 14 16 15 15 16 16 16 16 14 12
2 2 4 4 4 4 5 4 4 3 4 4 4 4 4 4 3 3 2 3 3 4 4 6 8 7 7 7 7 9 9 9 8 6 7 7 10 10 10 12 14 15 15 16 15 16 15 15 15 15 15 13 11 11
3 4 5 5 5 5 5 5 4 4 4 4 4 4 4 4 3 3 4 4 3 3 4 5 8 7 8 7 8 8 8 7 6 5 6 7 10 10 9 10 13 14 15 15 16 15 14 15 15 15 13 11 9 8
4 5 5 5 5 4 4 5 5 5 5 4 4 4 4 4 3 3 4 3 3 3 4 5 7 7 8 8 8 8 7 7 6 6 6 7 8 7 8 12 13 14 14 15 15 15 15 15 15 13 12 10 8 6
4 4 4 4 4 4 4 4 5 5 5 5 5 4 4 3 2 3 3 3 4 5 5 5 7 7 7 8 9 8 9 7 8 7 7 8 8 9 11 12 13 14 14 14 15 14 14 14 14 12 10 9 7 4
4 4 4 3 3 3 4 5 4 4 5 5 4 1 2 1 3 3 3 3 3 5 4 6 8 6 7 6 6 6 7 8 7 8 9 7 9 12 13 13 13 12 12 12 12 13 14 13 11 9 9 7 5 2
4 4 4 4 3 3 4 5 5 4 4 2 1 3 3 4 5 3 4 5 5 5 5 7 8 7 6 7 7 7 6 7 7 9 8 10 10 12 13 12 10 7 8 8 8 9 9 9 10 7 5 4 3 0
4 4 4 4 4 4 3 4 4 4 4 3 4 4 4 3 4 5 5 5 6 7 5 5 7 9 5 6 7 5 7 6 8 8 8 10 8 6 6 6 5 4 4 4 5 6 6 6 7 5 3 2 -1 -3
4 4 3 3 3 4 5 5 5 5 5 7 5 3 5 3 5 6 5 5 5 6 5 4 5 5 4 5 6 6 6 7 8 7 9 7 3 3 2 3 2 2 1 1 1 3 3 3 2 1 -1 -3 -5 -6
5 5 5 5 2 3 4 5 6 6 5 4 4 2 4 4 4 4 6 6 3 4 4 5 5 6 5 5 6 6 6 7 7 8 8 3 2 2 2 1 1 -0 -1 -1 -1 -1 -1 -2 -3 -4 -5 -6 -7 -7
5 5 5 5 6 6 5 6 6 5 2 2 3 2 1 1 1 1 1 3 1 1 4 5 5 5 5 6 6 6 6 7 8 6 3 2 1 0 0 -0 -1 -2 -3 -3 -4 -4 -5 -5 -5 -6 -7 -7 -8 -9
6 6 5 3 4 4 5 5 3 1 1 -0 -1 1 -0 2 0 0 0 1 0 0 2 4 5 5 5 6 6 5 7 7 3 2 1 1 -0 -1 -2 -2 -3 -4 -4 -5 -6 -6 -7 -7 -8 -9 -9 -9 -10 -10
5 4 5 5 4 5 5 3 2 0 -0 -1 -2 -2 -1 -1 -2 -1 -1 -1 -1 0 5 5 5 4 4 4 3 3 2 1 0 0 -1 -2 -2 -2 -3 -3 -4 -4 -5 -5 -6 -7 -7 -8 -8 -8 -8 -10 -10 -11
3 3 4 5 5 5 1 1 1 -0 -2 -2 -2 -3 -2 -3 -2 -2 -2 -1 0 2 2 2 3 2 2 2 2 1 0 -1 -1 -2 -2 -2 -2 -3 -3 -3 -5 -5 -5 -6 -7 -7 -8 -8 -8 -9 -10 -11 -11 -12
2 3 4 5 5 3 2 0 1 -2 -2 -2 -3 -3 -3 -3 -3 -4 -3 -2 -2 -2 -0 -1 -2 -1 -1 -1 -1 -0 -1 -2 -2 -3 -4 -4 -4 -4 -4 -5 -5 -6 -6 -6 -7 -7 -8 -8 -9 -10 -10 -11 -11 -12
4 4 3 4 4 3 1 0 0 -0 -2 -2 -2 -3 -3 -4 -4 -4 -5 -4 -4 -4 -5 -5 -5 -5 -5 -4 -4 -2 -3 -3 -3 -3 -4 -4 -5 -6 -6 -6 -7 -7 -8 -8 -9 -9 -9 -9 -10 -11 -11 -11 -12 -13
4 4 4 4 2 2 1 1 -1 -1 -1 -1 -2 -2 -3 -4 -5 -6 -6 -5 -6 -7 -6 -7 -6 -6 -6 -6 -6 -4 -4 -3 -3 -4 -4 -5 -5 -6 -6 -7 -7 -8 -8 -8 -9 -10 -10 -10 -11 -12 -13 -13 -14 -14
2 3 3 2 2 1 2 1 1 -0 0 -1 -1 -2 -3 -4 -5 -6 -6 -7 -8 -8 -8 -8 -7 -7 -7 -7 -6 -6 -6 -6 -6 -6 -6 -6 -6 -6 -6 -7 -7 -8 -8 -9 -9 -10 -11 -11 -12 -12 -13 -14 -14 -14
2 2 0 1 1 2 1 0 2 1 1 -0 -1 -2 -3 -4 -5 -5 -7 -8 -8 -9 -9 -8 -8 -8 -8 -8 -8 -8 -8 -7 -6 -7 -7 -8 -8 -8 -8 -9 -9 -9 -10 -11 -11 -11 -12 -12 -13 -13 -13 -14 -15 -15
-1 -5 -3 -2 0 -1 -0 -1 1 0 -0 -0 -1 -2 -3 -4 -4 -5 -7 -8 -9 -9 -9 -9 -9 -7 -8 -8 -8 -9 -8 -8 -8 -9 -9 -9 -9 -10 -10 -10 -11 -11 -11 -11 -11 -12 -12 -13 -13 -13 -13 -14 -14 -14
-3 -7 -5 -4 -4 -3 -3 -4 -4 -2 -3 -3 -3 -4 -5 -4 -5 -6 -7 -8 -9 -10 -10 -9 -9 -9 -8 -8 -9 -10 -11 -10 -9 -9 -10 -10 -10 -11 -11 -11 -12 -12 -12 -12 -12 -12 -13 -13 -13 -14 -14 -14 -15 -15
-7 -8 -6 -6 -6 -5 -5 -5 -6 -6 -5 -6 -7 -7 -6 -6 -7 -8 -9 -10 -10 -10 -10 -10 -10 -9 -10 -11 -10 -11 -12 -11 -11 -11 -12 -11 -10 -9 -9 -9 -10 -12 -13 -12 -13 -13 -13 -14 -14 -14 -15 -16 -16 -16
-8 -8 -8 -8 -7 -7 -8 -8 -7 -7 -7 -8 -8 -8 -7 -9 -9 -9 -9 -10 -10 -11 -12 -12 -11 -11 -11 -12 -13 -13 -14 -14 -14 -14 -14 -14 -14 -13 -11 -11 -12 -13 -13 -13 -13 -13 -14 -14 -14 -15 -16 -16 -17 -17
-8 -8 -10 -11 -10 -10 -11 -10 -10 -10 -9 -9 -9 -10 -10 -10 -10 -10 -10 -11 -12 -12 -12 -12 -13 -13 -13 -13 -13 -13 -13 -13 -13 -13 -13 -14 -15 -15 -15 -15 -14 -13 -14 -14 -14 -14 -14 -15 -16 -16 -16 -17 -18 -18
-10 -10 -10 -13 -11 -11 -12 -11 -11 -11 -11 -10 -10 -11 -11 -11 -12 -11 -12 -12 -12 -12 -12 -12 -12 -13 -13 -14 -15 -15 -14 -13 -11 -11 -11 -12 -12 -15 -15 -15 -15 -15 -15 -14 -14 -15 -15 -16 -16 -16 -17 -17 -18 -19
-10 -10 -11 -12 -12 -11 -11 -12 -12 -13 -11 -11 -11 -11 -11 -13 -14 -14 -13 -13 -13 -13 -14 -14 -14 -13 -13 -13 -14 -15 -16 -15 -15 -12 -11 -12 -15 -16 -16 -15 -15 -15 -15 -15 -16 -17 -17 -15 -16 -17 -17 -18 -18 -18
-10 -9 -10 -10 -11 -11 -11 -13 -12 -11 -11 -11 -11 -11 -12 -12 -14 -15 -15 -15 -14 -14 -14 -14 -16 -16 -15 -15 -14 -14 -15 -17 -17 -17 -16 -17 -17 -17 -17 -17 -17 -16 -17 -17 -17 -17 -17 -17 -17 -17 -17 -18 -19 -18
-10 -10 -10 -10 -11 -11 -12 -10 -10 -10 -10 -10 -11 -12 -13 -11 -12 -14 -16 -15 -15 -15 -16 -16 -16 -17 -18 -18 -18 -18 -18 -18 -18 -18 -18 -18 -18 -17 -17 -17 -17 -17 -17 -17 -17 -18 -17 -17 -17 -17 -18 -18 -19 -19
-10 -9 -10 -10 -10 -10 -11 -10 -10 -10 -10 -11 -12 -14 -14 -13 -13 -15 -17 -18 -17 -17 -17 -18 -18 -19 -18 -18 -19 -19 -19 -18 -18 -18 -18 -18 -18 -18 -18 -17 -17 -17 -17 -18 -18 -18 -18 -19 -18 -19 -19 -20 -20 -20
Height
698 696 694 693 692 691 691 692 694 696 699 704 708 712 718 724 730 736 738 745 750 750 746 746 746 751 752 752 753 753 752 743 751 750 740 732 730 716 714 703 707 715 723 728 731 725 715 691 697 706 701 689 680 679
686 683 680 678 677 677 677 678 680 683 686 691 695 701 706 712 719 727 732 736 743 747 742 742 741 742 743 744 746 749 742 740 742 734 729 722 722 719 709 706 692 703 698 696 704 702 690 691 699 700 699 688 676 679
672 668 665 663 662 662 663 665 668 671 675 679 683 689 695 700 706 714 719 726 736 739 741 740 735 731 736 736 739 742 736 735 735 735 739 730 727 713 714 702 698 691 692 695 696 686 691 696 705 697 693 680 674 667
658 654 651 648 647 647 649 652 655 659 664 669 675 680 685 689 695 703 707 715 725 732 729 720 721 724 722 728 728 730 730 730 731 733 738 734 726 720 707 703 698 690 688 689 687 684 685 684 684 683 678 676 675 669
644 639 634 631 629 628 629 633 639 645 651 658 664 671 678 684 689 696 702 706 714 720 713 709 712 711 713 719 721 725 727 729 730 733 733 729 719 717 709 708 695 689 686 686 683 681 682 683 682 680 676 672 674 671
630 623 619 616 616 616 617 621 626 632 640 647 655 662 670 678 685 692 698 702 707 715 716 711 705 705 707 713 716 719 721 723 727 730 726 725 716 714 705 691 684 682 681 680 679 679 680 680 680 678 675 676 679 676
618 614 612 610 608 608 610 613 616 621 629 637 646 654 664 672 680 685 686 688 700 711 715 712 699 703 704 710 713 715 718 721 724 725 721 719 708 710 703 695 686 683 680 676 675 676 676 675 675 676 679 681 684 684
613 610 607 605 604 603 603 606 610 615 622 629 639 649 660 671 679 684 685 688 695 706 710 705 699 700 703 703 705 710 712 715 718 717 717 714 712 713 697 682 681 680 678 674 670 671 671 672 673 677 679 682 687 692
612 609 605 601 597 595 591 593 600 609 618 626 637 647 659 667 677 681 684 693 699 703 702 703 694 694 702 698 699 706 706 708 707 707 707 706 697 688 677 678 676 675 676 671 669 671 671 670 670 675 681 684 691 698
612 607 603 599 594 589 582 581 589 602 615 627 635 644 659 666 673 683 690 697 699 698 699 692 689 695 698 703 703 707 704 699 701 694 693 696 678 674 673 674 673 678 678 676 673 670 667 670 675 680 682 689 696 701
611 607 602 598 594 587 574 573 585 601 615 624 635 642 654 666 674 683 686 686 690 690 691 682 680 685 696 693 696 700 698 695 689 678 687 672 663 661 665 670 677 682 685 683 682 680 678 677 677 684 688 693 701 706
613 608 603 600 598 592 584 583 594 605 613 622 628 645 658 669 673 673 675 682 678 672 682 683 680 679 693 693 691 698 690 694 677 681 681 657 672 684 683 685 688 690 690 688 686 683 682 681 680 686 691 698 705 714
616 614 612 609 607 604 603 605 609 616 623 628 636 651 652 668 661 660 669 670 672 671 678 680 682 687 694 693 690 692 686 679 676 678 663 673 693 694 695 693 692 693 694 693 692 689 688 689 690 692 697 705 712 721
621 619 617 617 619 617 619 620 623 626 626 635 641 659 656 661 665 664 658 660 676 676 676 676 682 680 686 689 685 684 682 679 672 665 662 695 698 699 698 698 696 697 697 695 695 695 696 698 701 704 706 709 715 719
625 624 623 625 620 618 623 624 625 626 637 649 653 667 674 680 681 682 681 678 682 682 677 677 680 683 683 681 681 681 680 668 663 673 695 701 703 703 701 701 701 701 701 701 702 704 706 707 709 712 717 718 720 724
627 625 627 627 626 626 625 625 626 635 654 667 680 678 684 678 684 686 686 683 687 686 682 677 673 677 676 675 676 678 669 669 695 703 707 707 706 707 707 707 706 707 707 709 711 711 712 715 717 720 725 729 732 734
629 629 626 628 627 624 623 625 636 655 670 682 692 696 694 694 696 696 695 692 692 687 670 672 670 680 681 683 692 698 699 707 710 710 712 712 711 711 711 712 712 712 713 714 715 717 720 723 725 727 731 740 743 746
630 630 628 628 629 628 633 643 657 672 689 696 696 701 702 703 701 700 699 696 690 683 683 688 689 693 697 697 704 712 714 718 718 717 716 715 715 715 715 715 717 717 718 720 722 724 727 729 731 739 742 747 751 756
632 631 630 630 632 635 647 661 667 685 699 702 705 706 707 708 710 710 706 702 699 698 696 705 713 716 719 722 723 718 719 720 721 723 723 723 722 721 721 722 723 724 725 728 729 731 734 738 740 745 748 752 756 763
634 633 633 632 633 642 659 672 677 686 698 707 708 710 712 715 715 714 713 710 707 710 721 730 738 740 739 736 733 727 727 726 725 726 727 728 729 728 729 729 730 732 733 736 738 739 741 746 750 754 757 760 764 771
635 636 635 635 641 651 667 677 685 693 701 704 710 710 716 719 720 721 721 720 722 738 742 750 748 747 745 741 737 733 732 729 728 728 729 731 733 734 734 735 736 738 740 742 744 748 751 754 759 762 764 769 774 779
638 638 639 641 651 663 674 682 686 694 697 704 707 713 718 722 725 731 735 737 752 760 760 757 754 750 747 744 742 740 738 736 736 736 736 737 737 738 739 741 741 744 747 749 751 755 759 763 767 770 774 779 783 786
640 642 648 654 660 669 686 688 685 691 694 703 709 716 723 728 734 739 748 759 765 767 764 760 757 755 752 751 748 746 744 742 741 742 742 743 744 745 746 748 750 750 753 758 760 764 768 772 774 776 781 785 788 792
647 661 670 675 676 686 690 695 694 696 701 703 710 720 728 733 739 745 758 768 772 771 767 763 760 756 755 754 752 752 750 749 748 748 749 749 750 753 754 756 757 759 761 764 767 770 774 776 780 782 786 789 792 795
663 698 693 697 698 697 703 709 713 707 716 719 724 733 739 739 744 755 765 773 774 774 772 768 765 764 761 760 760 759 758 756 754 754 756 757 757 759 760 762 764 767 769 770 773 776 778 781 784 787 790 792 795 799
700 715 712 714 715 713 718 722 728 731 730 735 743 747 747 749 758 768 776 781 779 779 777 774 771 769 769 769 767 766 765 763 762 761 764 763 763 764 766 768 770 774 776 777 778 780 783 786 788 791 795 798 800 803
714 723 727 732 728 728 734 739 740 741 744 748 752 755 754 763 771 780 783 786 784 784 782 780 778 776 776 775 775 774 772 770 770 772 772 772 771 772 773 775 777 780 781 782 783 785 787 790 792 795 798 802 804 807
727 732 738 746 744 746 751 754 757 759 760 762 762 768 772 776 781 787 788 789 788 787 786 785 784 783 782 781 781 780 779 779 778 778 778 778 779 780 780 781 782 783 784 786 787 788 791 793 795 798 801 803 806 809
741 745 746 758 754 758 766 768 769 771 774 769 769 775 782 789 794 792 792 792 791 789 789 788 788 788 787 786 785 784 783 782 782 781 782 784 786 789 788 788 788 789 789 790 791 792 794 796 799 801 804 806 809 811
747 750 753 763 766 771 778 778 777 780 777 775 778 784 789 795 799 797 796 795 794 794 794 793 793 791 791 790 790 790 789 788 787 788 787 789 792 793 793 793 793 793 794 795 796 797 798 800 802 804 806 808 811 812
752 751 758 765 775 783 784 786 783 783 783 785 787 787 791 797 800 801 800 799 799 798 797 797 797 796 796 796 795 794 795 796 794 794 794 795 796 796 796 796 797 797 798 799 800 801 803 805 806 808 809 811 812 813
756 759 762 771 781 785 786 783 783 784 786 786 790 794 797 795 798 804 806 804 803 802 802 802 802 802 802 802 801 800 800 801 800 799 799 799 799 799 799 799 800 800 801 802 803 804 805 807 808 809 810 811 812 813
764 763 766 771 776 778 783 781 783 785 788 789 795 799 801 799 802 808 809 807 807 807 806 806 806 805 805 804 805 804 804 803 803 803 803 802 802 801 801 802 802 802 803 804 805 806 807 808 809 810 810 811 811 812
Wind_Speed
34 36 37 38 39 38 36 35 35 35 35 35 36 37 38 39 37 37 32 28 28 7 14 17 17 17 6 8 9 3 2 8 5 5 4 4 5 7 10 11 5 7 6 5 6 7 13 6 5 6 11 18 18 16
39 40 42 41 40 38 36 34 33 34 34 34 34 35 37 40 42 42 24 33 33 9 4 22 34 29 25 25 10 8 8 1 5 4 5 3 4 3 9 9 10 11 10 4 7 5 11 10 4 14 17 18 18 8
43 42 41 40 38 35 34 34 32 30 28 27 29 32 35 37 42 46 33 23 30 8 3 13 14 24 33 32 30 10 8 13 7 5 1 2 5 3 5 9 14 10 7 6 5 7 13 1 13 17 14 16 14 15
42 41 41 40 40 41 41 39 35 33 31 31 31 31 28 28 36 36 35 27 32 2 6 6 18 29 29 31 31 31 22 13 14 6 3 4 4 3 5 7 11 9 4 7 9 11 11 11 10 13 16 13 10 12
43 45 45 45 43 40 40 42 38 37 35 34 32 30 29 28 25 29 31 29 36 9 2 7 7 18 23 26 27 30 22 14 7 4 3 4 5 6 8 8 10 11 13 10 11 12 12 12 14 15 17 14 12 9
42 45 28 26 25 23 21 23 28 34 34 33 32 30 30 31 27 20 2 24 36 27 1 3 3 5 14 20 18 18 14 12 9 2 3 3 5 6 4 8 12 11 13 14 14 15 13 13 12 16 10 9 7 8
35 26 15 13 11 13 16 18 21 29 31 32 31 35 31 31 31 6 3 14 34 21 3 2 3 2 8 11 7 8 13 5 4 2 4 4 9 5 7 14 17 16 15 17 19 18 16 17 12 7 4 4 8 11
13 9 7 8 9 12 16 18 20 21 26 29 34 34 34 31 18 7 1 35 35 8 3 3 3 2 6 4 5 5 6 7 5 3 3 3 3 3 5 10 14 16 19 21 21 16 15 14 12 6 3 7 7 8
6 8 7 9 12 10 15 23 27 25 23 27 32 30 33 11 4 6 23 35 15 4 4 4 5 5 5 5 4 5 5 5 4 5 6 5 6 8 9 13 15 15 13 17 16 7 8 10 8 3 3 5 8 9
12 11 6 7 5 13 9 15 26 30 30 30 24 6 4 12 37 33 7 2 2 2 1 4 3 4 6 5 4 4 4 5 4 6 3 4 12 17 16 15 16 10 12 11 13 13 10 5 3 5 6 6 8 11
14 8 1 5 11 20 22 20 36 39 38 7 3 3 27 39 10 2 3 4 4 4 5 5 9 5 5 5 4 4 2 5 4 5 6 5 9 14 16 13 6 4 6 5 7 6 7 6 5 7 9 10 10 13
19 19 13 12 13 22 31 45 48 25 11 10 19 23 10 4 3 4 4 4 4 5 5 5 7 4 4 1 3 4 3 2 4 8 4 4 3 7 5 4 6 6 6 5 5 5 3 2 7 10 11 12 15 18
24 29 33 34 32 36 35 45 51 49 46 26 6 4 3 1 4 6 8 4 4 5 5 4 4 4 2 3 2 4 5 6 4 4 3 3 5 7 7 6 5 6 4 3 3 4 5 7 10 14 14 21 23 20
16 9 14 22 23 24 21 24 27 13 5 4 3 6 3 3 3 2 2 3 3 0 5 7 3 3 3 5 2 4 2 2 4 4 1 2 7 9 7 6 4 5 5 5 6 7 9 10 12 17 19 23 25 24
7 11 11 16 10 12 10 11 11 7 6 5 4 5 4 3 3 3 2 2 3 3 1 4 2 2 3 3 3 2 3 3 1 2 2 5 8 8 7 5 4 4 5 7 8 8 9 14 16 18 18 22 26 28
4 3 11 14 11 7 7 12 11 6 4 4 6 3 3 3 4 3 4 3 4 4 2 1 3 3 2 0 3 1 3 1 3 3 5 7 7 6 5 5 6 6 8 9 12 14 16 16 18 22 26 25 26 29
5 1 5 9 18 14 10 7 7 7 5 4 4 5 4 4 4 3 4 5 5 3 0 1 2 2 1 3 2 3 3 3 5 5 4 6 7 6 5 6 7 9 10 13 17 20 22 24 26 26 17 23 26 28
3 4 3 5 2 8 7 9 4 5 7 6 4 5 6 5 5 5 5 6 4 2 2 3 2 4 4 3 3 3 3 2 4 5 6 5 5 5 5 7 9 12 15 16 19 22 24 23 22 19 27 28 29 29
10 8 5 6 4 6 4 5 6 5 5 3 3 4 3 3 6 6 6 7 5 6 3 3 5 4 3 4 6 4 3 3 2 3 5 8 8 8 11 13 15 16 17 17 18 18 20 21 21 21 21 23 22 22
11 13 16 8 3 4 5 4 4 5 3 3 3 7 4 3 5 6 9 7 8 4 6 5 4 4 4 5 6 4 3 2 2 3 4 5 8 11 11 12 14 18 20 21 21 21 21 21 21 20 20 21 23 21
3 8 9 5 6 10 4 3 4 3 4 4 3 4 4 7 9 6 6 7 6 4 4 4 6 5 8 8 10 7 5 3 2 1 3 4 7 9 11 13 14 15 14 14 15 17 17 18 19 20 23 23 23 23
5 7 4 7 4 4 4 7 5 4 3 4 3 3 3 3 4 6 4 8 4 4 4 5 6 6 6 9 9 10 7 8 9 10 9 8 5 5 7 10 13 12 13 14 16 17 17 17 18 21 23 23 22 22
5 6 7 10 5 5 4 1 2 3 3 3 3 3 3 3 3 3 4 4 3 6 10 8 8 7 7 9 11 14 11 9 8 9 10 11 13 13 13 13 12 14 15 16 16 17 19 19 21 22 22 21 22 21
8 7 6 5 7 4 2 4 3 3 3 3 3 3 3 3 2 4 4 3 5 11 9 11 11 4 6 11 8 11 12 9 11 13 11 11 11 13 14 15 15 16 16 16 17 18 17 19 19 19 20 20 18 18
7 9 6 6 5 4 4 3 5 4 4 5 3 4 3 2 3 3 3 4 6 8 8 12 9 7 6 5 7 11 15 11 10 7 14 12 14 15 16 17 17 14 12 16 16 17 17 16 16 17 17 16 17 17
8 9 6 6 4 5 4 3 4 5 3 3 4 2 2 3 4 4 3 6 5 6 7 8 6 5 6 11 6 9 12 11 10 14 14 14 12 11 11 8 9 10 8 10 14 16 16 15 16 16 17 16 15 16
6 6 5 5 3 4 4 4 5 5 4 4 3 3 3 4 4 3 3 6 4 8 9 9 9 9 8 10 12 12 13 15 14 13 12 15 16 15 12 11 11 8 7 9 11 13 16 16 16 15 15 14 12 11
5 6 6 6 5 6 4 4 4 4 3 3 2 4 3 3 3 2 3 7 6 6 8 10 11 11 11 11 10 9 11 11 13 15 18 20 18 16 15 14 14 12 12 10 11 12 13 14 15 15 14 13 11 9
5 3 3 6 5 6 7 5 4 3 3 2 2 3 3 3 4 5 6 6 5 6 7 8 9 8 9 10 12 11 11 9 7 9 10 7 8 12 11 10 10 11 12 13 13 13 13 13 13 12 12 11 10 8
4 3 4 5 5 6 6 4 4 4 4 6 7 10 8 5 10 9 8 9 9 9 8 8 8 9 9 10 11 14 15 13 10 7 5 6 6 5 7 9 9 9 9 11 12 13 12 13 12 11 10 9 7 6
2 3 5 5 5 6 5 2 8 9 6 6 7 8 6 3 5 12 13 9 7 6 7 9 12 12 9 9 8 8 11 13 14 14 12 11 9 8 7 7 7 7 7 8 8 8 9 8 8 8 7 6 6 5
4 4 4 5 4 3 1 1 2 2 2 2 3 2 2 2 3 4 11 8 8 9 9 8 9 10 9 9 10 11 10 8 9 9 9 8 7 7 7 6 6 6 6 7 7 7 7 6 6 5 5 4 4 4
3 4 4 4 4 4 2 2 2 3 3 2 3 2 2 2 3 2 4 8 6 6 7 7 7 8 9 9 9 9 9 10 9 8 8 7 6 5 5 5 5 5 5 4 4 4 4 4 4 3 3 3 4 4
Wind_Direction
282 283 283 281 277 274 269 264 258 253 250 246 242 238 233 229 227 218 222 209 203 232 247 246 246 241 256 229 229 158 258 220 188 225 240 216 238 223 242 255 181 176 192 183 220 240 244 360 43 334 323 317 312 329
286 284 281 276 273 270 268 263 257 252 247 243 238 235 233 230 225 218 222 212 206 217 255 243 242 245 245 245 226 234 246 254 221 251 216 219 211 246 250 249 224 241 227 248 210 212 281 310 331 298 295 292 304 283
286 284 281 279 275 270 265 260 253 248 242 236 232 230 229 229 224 216 208 195 195 218 248 235 237 240 233 234 229 229 232 245 230 237 316 285 254 254 241 244 262 262 241 237 215 233 243 201 277 260 287 321 306 273
287 287 285 280 274 270 264 257 252 248 243 235 236 231 233 227 221 216 205 190 189 153 229 220 227 227 225 226 227 226 236 242 244 229 233 222 233 237 267 287 285 276 253 257 269 280 281 271 236 311 325 328 339 330
291 289 286 282 278 272 263 251 244 243 239 234 230 224 221 219 218 209 203 193 188 191 229 231 207 235 220 223 226 229 234 235 241 236 212 227 252 270 255 275 264 256 257 267 274 287 295 293 305 307 312 324 343 341
296 296 285 293 272 268 246 237 233 233 229 224 222 216 209 205 203 179 148 196 190 200 161 249 273 204 201 210 216 222 226 233 227 210 204 214 253 225 245 258 264 268 270 269 277 285 297 297 300 290 293 350 12 31
296 297 288 289 273 256 246 238 231 228 220 217 210 206 203 196 186 179 189 173 175 167 169 193 240 116 165 181 209 213 223 223 226 190 212 244 253 231 254 254 264 270 274 277 282 285 284 283 292 313 310 76 69 73
304 316 290 297 283 271 256 237 221 211 202 204 198 199 188 178 151 135 185 159 149 114 201 189 188 182 177 164 183 192 198 206 210 216 212 217 229 216 255 243 248 257 263 272 275 279 275 285 283 264 198 137 107 84
47 8 359 322 289 274 268 236 216 200 190 185 183 178 164 156 121 149 151 149 157 184 182 185 181 178 167 195 198 175 188 212 216 222 217 220 226 227 242 244 258 256 267 281 286 294 284 283 296 186 162 168 137 112
7 29 45 36 31 28 296 215 190 189 177 166 137 84 134 157 123 126 111 100 149 224 244 218 188 174 178 170 175 167 203 215 229 223 199 232 246 246 247 255 264 308 295 299 279 274 269 271 228 170 164 158 148 137
15 62 50 331 71 33 28 155 157 151 142 110 132 117 123 129 109 82 152 174 151 188 190 214 201 153 195 178 155 210 182 186 228 181 204 224 249 244 241 254 322 338 318 313 303 299 299 289 217 172 141 134 137 135
53 63 58 76 62 56 67 117 126 127 112 151 116 112 107 108 128 158 141 147 197 201 162 187 190 182 146 175 179 176 237 183 247 150 215 244 70 26 28 21 23 14 359 337 339 326 349 78 144 144 133 126 122 127
85 86 78 69 56 81 95 101 103 106 116 116 82 80 167 118 152 165 167 170 189 179 164 162 140 143 133 210 175 192 222 223 126 218 230 46 28 12 360 358 15 26 23 24 29 57 78 97 120 132 122 126 125 125
88 94 57 53 83 89 95 99 114 122 75 66 70 77 14 98 88 97 67 79 70 101 144 164 128 165 150 177 185 225 217 194 218 236 162 38 0 347 353 2 359 23 52 72 72 91 105 107 105 110 117 123 124 118
105 50 65 78 60 46 83 122 166 90 52 62 32 66 68 85 63 30 7 129 32 324 164 135 122 163 148 190 200 178 194 225 274 31 10 348 343 344 348 357 21 53 66 72 77 89 97 106 106 104 105 114 115 113
55 321 39 44 82 103 102 100 57 73 65 62 45 85 21 106 61 41 28 52 15 344 282 231 138 166 148 184 166 31 261 54 38 349 343 331 344 352 10 48 70 81 90 93 92 94 94 94 97 98 94 96 101 105
184 17 353 65 59 62 65 72 50 52 63 56 59 37 55 64 43 19 350 357 333 288 134 48 111 77 98 86 81 13 27 2 346 351 352 354 356 11 47 79 91 100 103 106 106 104 104 107 107 102 98 97 97 96
54 8 13 195 45 40 45 42 76 69 70 46 73 46 59 47 17 23 354 348 332 31 25 60 36 54 41 55 64 22 15 12 9 5 7 12 25 42 71 92 100 106 105 105 106 108 107 106 103 103 105 106 98 96
68 56 69 128 122 84 70 47 48 85 65 78 60 42 47 52 37 22 13 11 36 36 71 49 55 45 34 21 347 349 1 358 26 41 44 43 58 75 89 94 101 104 106 109 108 106 102 105 108 110 110 108 101 103
73 69 72 100 82 82 77 56 64 83 73 88 78 54 59 22 15 27 28 25 38 57 52 44 37 11 338 333 327 351 31 61 111 99 76 69 73 77 84 92 96 100 96 93 91 94 99 96 93 99 102 106 106 107
81 34 50 73 58 64 79 77 68 83 122 95 118 80 71 54 46 37 31 10 54 30 57 23 5 358 0 360 6 13 24 7 23 56 116 105 89 95 95 96 98 94 99 103 98 92 93 95 104 102 98 97 103 108
30 38 59 40 79 73 79 35 95 120 87 112 98 58 61 40 33 33 30 41 62 27 356 333 344 350 9 22 25 31 44 70 76 82 87 101 102 95 89 96 105 100 97 97 102 101 100 105 108 109 109 110 110 111
60 42 48 24 75 61 75 269 76 117 102 93 98 66 52 56 52 52 70 43 50 2 350 352 341 23 28 29 45 45 42 64 76 77 78 80 81 84 88 84 96 106 100 90 98 104 107 113 112 114 116 115 116 113
50 48 33 40 35 74 65 45 30 60 55 71 70 76 57 54 60 66 70 51 5 3 6 10 10 26 46 43 40 30 26 59 77 72 71 93 90 79 84 86 85 89 100 110 110 111 113 114 118 118 120 121 120 118
71 13 13 35 25 57 57 46 26 51 64 43 73 63 47 27 69 66 62 20 3 9 4 6 29 30 32 40 36 35 29 41 69 78 61 79 96 95 85 82 79 82 101 111 114 117 119 120 120 122 123 124 123 122
71 23 36 26 33 41 35 64 44 43 46 68 58 50 39 63 68 63 46 1 357 4 2 6 11 34 44 31 31 25 17 28 71 71 46 45 61 86 98 99 95 75 78 115 126 125 123 124 125 124 122 123 124 126
66 48 51 26 16 70 82 60 47 51 60 47 39 42 50 67 71 67 27 19 360 7 12 22 34 49 54 54 53 51 55 63 72 78 73 65 62 64 78 93 92 92 104 113 123 130 131 130 129 128 127 128 131 137
61 42 57 13 60 36 75 55 40 42 43 17 54 47 69 59 79 46 23 13 23 41 51 52 54 58 60 55 53 59 66 73 82 86 81 71 65 66 71 81 93 105 105 106 115 122 129 133 134 134 133 131 128 127
54 41 76 45 56 53 40 37 34 36 357 3 86 90 94 64 26 20 22 21 36 50 54 54 51 56 61 57 53 47 42 36 93 93 85 80 70 49 55 76 84 89 96 103 109 114 120 122 123 126 127 132 135 133
54 14 87 55 53 51 25 14 55 36 57 72 96 105 92 79 41 38 46 46 51 52 52 52 45 51 54 62 62 55 46 43 43 56 89 87 82 74 71 75 80 86 97 106 110 110 117 127 131 134 134 133 139 143
52 81 75 58 80 102 94 54 105 88 77 75 77 94 93 101 87 41 36 30 41 56 64 59 55 48 53 49 48 60 64 48 59 72 84 91 90 86 84 86 85 91 101 111 117 122 127 127 133 137 143 148 156 160
41 52 110 102 127 148 227 87 66 77 55 72 68 88 131 126 81 51 7 23 55 64 56 67 70 60 59 66 68 71 78 74 66 71 74 78 84 93 96 98 100 101 111 116 114 119 123 128 137 146 157 169 181 190
93 78 82 102 126 157 137 120 62 103 65 72 65 36 49 34 93 87 33 41 58 70 78 80 80 80 79 79 77 75 75 79 79 77 76 76 78 85 92 91 93 105 123 123 124 133 140 142 151 165 181 194 203 218